Weather History for Laramie, WY

Change the Weather History Date:

Thursday, November 8, 2012

  Actual Average Record
Temperature  
Mean Temperature 43 °F 33 °F  
Max Temperature 58 °F 45 °F 65 °F (1978)
Min Temperature 27 °F 21 °F -2 °F (1948)
Degree Days  
Heating Degree Days 22 32  
Month to date heating degree days 182 244  
Since 1 July heating degree days 1247 1487  
Cooling Degree Days 0 0  
Month to date cooling degree days 0 0  
Year to date cooling degree days 211 67  
Moisture  
Dew Point 23 °F    
Average Humidity 52    
Maximum Humidity 75    
Minimum Humidity 28    
Precipitation  
Precipitation 0.00 in 0.02 in 0.40 in (1983)
Month to date precipitation 0.00 0.17  
Year to date precipitation 5.90 10.23  
Sea Level Pressure  
Sea Level Pressure 29.77 in    
Wind  
Wind Speed 17 mph (SSE)    
Max Wind Speed 31 mph    
Max Gust Speed 37 mph    
Visibility 10 miles    
Events      
T = Trace of Precipitation, MM = Missing Value Source: NWS Daily Summary

Daily Weather History Graph

Daily Weather History Graph

Search for Another Location

Airport:

Trip Planner

Search our weather history database for the weather conditions in past years. The results will help you decide how hot, cold, wet, or windy it might be!

Date:

Astronomy

Nov. 08, 2012 Rise Set
Actual Time 6:43 AM MST 4:49 PM MST
Civil Twilight 6:13 AM MST 5:18 PM MST
Nautical Twilight 5:40 AM MST 5:51 PM MST
Astronomical Twilight 5:08 AM MST 6:23 PM MST
Moon 12:37 AM MST (11/8) 1:35 PM MST (11/8)
Length of Visible Light 11h 04m
Length of Day
10h 06m
Waning Crescent, 32% of the Moon is Illuminated
Nov 8
Waning Crescent
Nov 13
New
Nov 20
First Quarter
Nov 28
Full
Dec 6
Last Quarter

Hourly Weather History & Observations

Time (MST) Temp. Windchill Dew Point Humidity Pressure Visibility Wind Dir Wind Speed Gust Speed Precip Events Conditions
12:53 AM 44.1 °F 41.5 °F 17.1 °F 34% 29.80 in 10.0 mi SW 4.6 mph - N/A   Clear
1:53 AM 39.0 °F 31.0 °F 18.0 °F 43% 29.82 in 10.0 mi South 13.8 mph - N/A   Clear
2:53 AM 37.0 °F 28.1 °F 19.0 °F 48% 29.81 in 10.0 mi SSW 15.0 mph - N/A   Clear
3:53 AM 36.0 °F 27.5 °F 19.0 °F 50% 29.82 in 10.0 mi SSW 12.7 mph - N/A   Clear
5:53 AM 32.0 °F 21.6 °F 19.0 °F 59% 29.90 in 10.0 mi WSW 15.0 mph - N/A   Clear
6:53 AM 30.9 °F 23.5 °F 18.0 °F 59% 29.91 in 10.0 mi WSW 8.1 mph - N/A   Clear
7:53 AM 37.0 °F 32.4 °F 21.0 °F 52% 29.93 in 10.0 mi ESE 5.8 mph - N/A   Clear
8:53 AM 44.1 °F 42.5 °F 23.0 °F 43% 29.86 in 10.0 mi SE 3.5 mph - N/A   Clear
9:53 AM 46.9 °F - 21.9 °F 37% 29.84 in 10.0 mi SSE 5.8 mph - N/A   Clear
10:53 AM 51.1 °F - 19.9 °F 29% 29.80 in 10.0 mi SSE 20.7 mph - N/A   Clear
11:53 AM 54.0 °F - 21.9 °F 29% 29.70 in 10.0 mi SSE 23.0 mph 27.6 mph N/A   Clear
12:53 PM 55.0 °F - 24.1 °F 30% 29.66 in 10.0 mi SSE 23.0 mph - N/A   Clear
1:53 PM 54.0 °F - 25.0 °F 33% 29.66 in 10.0 mi SSE 26.5 mph - N/A   Clear
2:53 PM 51.1 °F - 27.0 °F 39% 29.68 in 10.0 mi SSE 27.6 mph 33.4 mph N/A   Clear
3:53 PM 48.0 °F - 27.0 °F 44% 29.70 in 10.0 mi SSE 26.5 mph 33.4 mph N/A   Clear
4:53 PM 42.1 °F 31.9 °F 27.0 °F 55% 29.75 in 10.0 mi SSE 26.5 mph 35.7 mph N/A   Clear
5:53 PM 39.9 °F 29.2 °F 27.0 °F 60% 29.76 in 10.0 mi SSE 25.3 mph 32.2 mph N/A   Clear
6:53 PM 37.9 °F 27.1 °F 28.0 °F 68% 29.79 in 10.0 mi SSE 23.0 mph 29.9 mph N/A   Clear
7:53 PM 37.0 °F 26.4 °F 28.0 °F 70% 29.76 in 10.0 mi SSE 20.7 mph - N/A   Clear
8:53 PM 37.0 °F 26.7 °F 27.0 °F 67% 29.70 in 10.0 mi SSE 19.6 mph - N/A   Clear
9:53 PM 36.0 °F 26.3 °F 28.0 °F 73% 29.70 in 10.0 mi SE 16.1 mph - N/A   Clear
10:53 PM 35.1 °F 24.8 °F 28.0 °F 76% 29.66 in 10.0 mi SSE 17.3 mph - N/A   Clear
11:53 PM 35.1 °F 28.6 °F 23.0 °F 61% 29.64 in 10.0 mi South 8.1 mph - N/A   Clear